Weather History for KLUX - May, 2013

Change the Weather History Date:

Friday, May 24, 2013

  Actual Average (KGSP) Record (KGSP)
Temperature  
Mean Temperature 63 °F 71 °F  
Max Temperature 73 °F 82 °F 94 °F (1962)
Min Temperature 53 °F 60 °F 41 °F (1917)
Degree Days  
Heating Degree Days 2 1  
Month to date heating degree days 37  
Since 1 July heating degree days 3043  
Cooling Degree Days 0 7  
Month to date cooling degree days 101  
Year to date cooling degree days 149  
Growing Degree Days 13 (Base 50)    
Moisture  
Dew Point 49 °F    
Average Humidity 59    
Maximum Humidity 100    
Minimum Humidity 29    
Precipitation  
Precipitation 0.00 in 0.11 in 2.60 in (1996)
Month to date precipitation 2.90  
Year to date precipitation 18.57  
Snow  
Snow 0.00 in 0.00 in 0.00 in ()
Month to date snowfall 0.0  
Since 1 July snowfall 4.7  
Snow Depth -    
Sea Level Pressure  
Sea Level Pressure 30.06 in    
Wind  
Wind Speed 6 mph (NNW)    
Max Wind Speed 17 mph    
Max Gust Speed 26 mph    
Visibility 10 miles    
Events      
T = Trace of Precipitation, MM = Missing Value Source: NWS Daily Summary

Daily Weather History Graph

Daily Weather History Graph

Search for Another Location

Airport or City:

Trip Planner

Search our weather history database for the weather conditions in past years. The results will help you decide how hot, cold, wet, or windy it might be!

Date:

Astronomy

May. 24, 2013 Rise Set
Actual Time 6:19 AM EDT 8:30 PM EDT
Civil Twilight 5:51 AM EDT 8:58 PM EDT
Nautical Twilight 5:16 AM EDT 9:33 PM EDT
Astronomical Twilight 4:38 AM EDT 10:11 PM EDT
Moon 8:11 PM EDT (5/24) 5:48 AM EDT (5/24)
Length of Visible Light 15h 07m
Length of Day
14h 10m
Full, 100% of the Moon is Illuminated
May 24
Full
May 25
Full
May 31
Last Quarter
Jun 8
New
Jun 16
First Quarter

Hourly Weather History & Observations

Time (EDT) Temp. Dew Point Humidity Pressure Visibility Wind Dir Wind Speed Gust Speed Precip Events Conditions
12:15 AM 68.0 °F 55.4 °F 64% 29.93 in 10.0 mi WNW 4.6 mph - N/A   Clear
12:35 AM 68.0 °F 55.4 °F 64% 29.93 in 10.0 mi NNW 3.5 mph - N/A   Clear
12:55 AM 64.4 °F 57.2 °F 77% 29.94 in 10.0 mi North 3.5 mph - N/A   Clear
1:15 AM 62.6 °F 59.0 °F 88% 29.93 in 10.0 mi North 4.6 mph - N/A   Clear
1:35 AM 64.4 °F 57.2 °F 77% 29.93 in 10.0 mi NW 4.6 mph - N/A   Clear
1:55 AM 64.4 °F 57.2 °F 77% 29.93 in 10.0 mi Calm Calm - N/A   Scattered Clouds
2:15 AM 64.4 °F 57.2 °F 77% 29.94 in 10.0 mi Calm Calm - N/A   Mostly Cloudy
2:35 AM 62.6 °F 59.0 °F 88% 29.94 in 10.0 mi Calm Calm - N/A   Mostly Cloudy
2:55 AM 60.8 °F 60.8 °F 100% 29.94 in 10.0 mi Calm Calm - N/A   Scattered Clouds
3:15 AM 62.6 °F 60.8 °F 94% 29.94 in 10.0 mi Calm Calm - N/A   Mostly Cloudy
3:35 AM 62.6 °F 60.8 °F 94% 29.94 in 10.0 mi Calm Calm - N/A   Mostly Cloudy
3:55 AM 60.8 °F 60.8 °F 100% 29.93 in 10.0 mi WSW 4.6 mph - N/A   Mostly Cloudy
4:15 AM 60.8 °F 60.8 °F 100% 29.94 in 10.0 mi Calm Calm - N/A   Scattered Clouds
4:35 AM 60.8 °F 59.0 °F 94% 29.95 in 10.0 mi WNW 4.6 mph - N/A   Clear
4:55 AM 60.8 °F 55.4 °F 82% 29.95 in 10.0 mi NW 3.5 mph - N/A   Clear
5:15 AM 59.0 °F 59.0 °F 100% 29.95 in 10.0 mi NW 4.6 mph - N/A   Clear
5:35 AM 59.0 °F 59.0 °F 100% 29.95 in 10.0 mi NW 4.6 mph - N/A   Clear
5:55 AM 59.0 °F 59.0 °F 100% 29.95 in 10.0 mi Calm Calm - N/A   Clear
6:15 AM 59.0 °F 59.0 °F 100% 29.95 in 10.0 mi Calm Calm - N/A   Clear
6:35 AM 57.2 °F 57.2 °F 100% 29.96 in 10.0 mi WNW 3.5 mph - N/A   Clear
6:55 AM 57.2 °F 57.2 °F 100% 29.97 in 10.0 mi WNW 3.5 mph - N/A   Clear
7:15 AM 60.8 °F 59.0 °F 94% 29.97 in 10.0 mi Calm Calm - N/A   Clear
7:35 AM 62.6 °F 59.0 °F 88% 29.98 in 10.0 mi NW 4.6 mph - N/A   Clear
7:55 AM 64.4 °F 57.2 °F 77% 29.99 in 10.0 mi NNW 3.5 mph - N/A   Clear
8:15 AM 64.4 °F 57.2 °F 77% 30.00 in 10.0 mi NW 4.6 mph - N/A   Clear
8:35 AM 66.2 °F 55.4 °F 68% 30.01 in 10.0 mi NW 9.2 mph - N/A   Clear
8:55 AM 68.0 °F 53.6 °F 60% 30.01 in 10.0 mi NW 4.6 mph 16.1 mph N/A   Clear
9:15 AM 68.0 °F 55.4 °F 64% 30.02 in 10.0 mi NW 9.2 mph - N/A   Clear
9:35 AM 69.8 °F 55.4 °F 60% 30.03 in 10.0 mi NW 6.9 mph 16.1 mph N/A   Clear
9:55 AM 69.8 °F 53.6 °F 56% 30.04 in 10.0 mi NW 6.9 mph 16.1 mph N/A   Clear
10:15 AM 71.6 °F 50.0 °F 46% 30.05 in 10.0 mi NW 16.1 mph 25.3 mph N/A   Clear
10:35 AM 71.6 °F 50.0 °F 46% 30.06 in 10.0 mi NNW 17.3 mph 26.5 mph N/A   Clear
10:55 AM 71.6 °F 46.4 °F 41% 30.06 in 10.0 mi NNW 13.8 mph 23.0 mph N/A   Clear
11:15 AM 71.6 °F 48.2 °F 43% 30.07 in 10.0 mi WNW 12.7 mph 19.6 mph N/A   Clear
11:35 AM 73.4 °F 51.8 °F 47% 30.08 in 10.0 mi NNW 17.3 mph 21.9 mph N/A   Clear
11:55 AM 73.4 °F 50.0 °F 44% 30.09 in 10.0 mi NW 12.7 mph 18.4 mph N/A   Clear
12:15 PM 73.4 °F 50.0 °F 44% 30.09 in 10.0 mi North 9.2 mph 21.9 mph N/A   Clear
12:35 PM 73.4 °F 46.4 °F 38% 30.09 in 10.0 mi NNW 17.3 mph 25.3 mph N/A   Clear
12:55 PM 73.4 °F 44.6 °F 36% 30.09 in 10.0 mi North 10.4 mph 21.9 mph N/A   Clear
1:15 PM 73.4 °F 42.8 °F 33% 30.10 in 10.0 mi NNW 16.1 mph 25.3 mph N/A   Clear
1:35 PM 73.4 °F 42.8 °F 33% 30.10 in 10.0 mi NNW 13.8 mph 20.7 mph N/A   Clear
1:55 PM 73.4 °F 44.6 °F 36% 30.11 in 10.0 mi NW 16.1 mph 25.3 mph N/A   Clear
2:15 PM 73.4 °F 44.6 °F 36% 30.11 in 10.0 mi NNW 10.4 mph 18.4 mph N/A   Clear
2:35 PM 73.4 °F 44.6 °F 36% 30.10 in 10.0 mi NW 10.4 mph 20.7 mph N/A   Clear
2:55 PM 73.4 °F 44.6 °F 36% 30.10 in 10.0 mi NNW 12.7 mph 20.7 mph N/A   Clear
3:15 PM 73.4 °F 42.8 °F 33% 30.11 in 10.0 mi NNW 11.5 mph 20.7 mph N/A   Clear
3:35 PM 73.4 °F 41.0 °F 31% 30.11 in 10.0 mi NNW 11.5 mph 20.7 mph N/A   Clear
3:55 PM 73.4 °F 41.0 °F 31% 30.11 in 10.0 mi NW 11.5 mph 18.4 mph N/A   Clear
4:35 PM 73.4 °F 41.0 °F 31% 30.11 in 10.0 mi NW 11.5 mph - N/A   Clear
4:55 PM 73.4 °F 41.0 °F 31% 30.11 in 10.0 mi NNW 8.1 mph - N/A   Clear
5:15 PM 73.4 °F 41.0 °F 31% 30.11 in 10.0 mi NW 9.2 mph 21.9 mph N/A   Clear
5:35 PM 73.4 °F 41.0 °F 31% 30.12 in 10.0 mi NW 10.4 mph 17.3 mph N/A   Clear
5:55 PM 73.4 °F 39.2 °F 29% 30.13 in 10.0 mi NNW 10.4 mph - N/A   Clear
6:15 PM 71.6 °F 41.0 °F 33% 30.13 in 10.0 mi NNW 6.9 mph - N/A   Clear
6:35 PM 71.6 °F 39.2 °F 31% 30.13 in 10.0 mi NNW 11.5 mph 18.4 mph N/A   Clear
6:55 PM 71.6 °F 37.4 °F 29% 30.13 in 10.0 mi NNW 10.4 mph - N/A   Clear
7:15 PM 69.8 °F 39.2 °F 33% 30.14 in 10.0 mi NNW 6.9 mph - N/A   Clear
7:35 PM 69.8 °F 41.0 °F 35% 30.15 in 10.0 mi NNW 5.8 mph - N/A   Clear
7:55 PM 68.0 °F 41.0 °F 37% 30.16 in 10.0 mi NNW 8.1 mph - N/A   Clear
8:15 PM 66.2 °F 39.2 °F 37% 30.16 in 10.0 mi NNW 5.8 mph - N/A   Clear
8:35 PM 64.4 °F 39.2 °F 40% 30.17 in 10.0 mi NNW 5.8 mph - N/A   Clear
8:55 PM 62.6 °F 41.0 °F 45% 30.17 in 10.0 mi North 3.5 mph - N/A   Clear
9:15 PM 60.8 °F 42.8 °F 52% 30.18 in 10.0 mi North 4.6 mph - N/A   Clear
9:35 PM 60.8 °F 39.2 °F 45% 30.18 in 10.0 mi NNW 4.6 mph - N/A   Clear
9:55 PM 60.8 °F 39.2 °F 45% 30.19 in 10.0 mi NNW 6.9 mph - N/A   Clear
10:15 PM 60.8 °F 39.2 °F 45% 30.20 in 10.0 mi NNW 4.6 mph - N/A   Clear
10:35 PM 57.2 °F 42.8 °F 59% 30.21 in 10.0 mi NNW 4.6 mph - N/A   Clear
10:55 PM 55.4 °F 42.8 °F 63% 30.21 in 10.0 mi North 4.6 mph - N/A   Clear
11:15 PM 57.2 °F 41.0 °F 55% 30.21 in 10.0 mi North 3.5 mph - N/A   Clear
11:35 PM 53.6 °F 42.8 °F 67% 30.22 in 10.0 mi NNW 5.8 mph - N/A   Clear
11:55 PM 55.4 °F 42.8 °F 63% 30.23 in 10.0 mi Calm Calm - N/A   Clear